AKJ1345 VOBL-VEGT

Flight info

Callsign AKJ1345
Flight time 3h 5m
Altitude 37000
Route ANIRO8A ANIRO W47 VVZ J26 DGP B209 RAJ R472 ATOGA ATOGA1C
Aircraft B38M/M-SDE1FGHILORVWXY/HB1

Departure

Time 2026-05-07 08:13
Airport Kempegowda International Airport Bengaluru (VOBL)

Arrival

Time 2026-05-07 11:18
Airport Lokpriya Gopinath Bordoloi International Airport (VEGT)
Time Latitude Longitude Altitude Speed Heading
2026-05-07 07:35 13.20170 77.70831 3014 ft 0 kts 180°
2026-05-07 08:02 13.20191 77.70831 3014 ft 3 kts 180°
2026-05-07 08:02 13.20214 77.70834 3014 ft 3 kts 206°
2026-05-07 08:02 13.20230 77.70850 3014 ft 3 kts 243°
2026-05-07 08:02 13.20236 77.70870 3014 ft 2 kts 277°
2026-05-07 08:03 13.20241 77.70849 3014 ft 3 kts 277°
2026-05-07 08:03 13.20241 77.70840 3014 ft 0 kts 272°
2026-05-07 08:06 13.20241 77.70834 3014 ft 4 kts 271°
2026-05-07 08:07 13.20242 77.70777 3014 ft 10 kts 270°
2026-05-07 08:07 13.20242 77.70701 3014 ft 11 kts 270°
2026-05-07 08:07 13.20243 77.70615 3014 ft 13 kts 270°
2026-05-07 08:07 13.20244 77.70522 3014 ft 14 kts 270°
2026-05-07 08:08 13.20250 77.70425 3014 ft 14 kts 292°
2026-05-07 08:08 13.20332 77.70387 3014 ft 14 kts
2026-05-07 08:08 13.20435 77.70390 3014 ft 15 kts 360°
2026-05-07 08:08 13.20525 77.70346 3014 ft 16 kts 288°
2026-05-07 08:09 13.20533 77.70235 3014 ft 16 kts 271°
2026-05-07 08:09 13.20533 77.70115 3014 ft 17 kts 270°
2026-05-07 08:09 13.20534 77.69988 3014 ft 18 kts 271°
2026-05-07 08:09 13.20531 77.69854 3014 ft 19 kts 271°
2026-05-07 08:10 13.20537 77.69716 3014 ft 20 kts 270°
2026-05-07 08:10 13.20539 77.69573 3013 ft 21 kts 269°
2026-05-07 08:10 13.20539 77.69419 3013 ft 22 kts 270°
2026-05-07 08:10 13.20535 77.69264 3013 ft 22 kts 269°
2026-05-07 08:11 13.20623 77.69197 3014 ft 17 kts
2026-05-07 08:11 13.20714 77.69249 3014 ft 16 kts 80°
2026-05-07 08:11 13.20706 77.69369 3013 ft 23 kts 102°
2026-05-07 08:11 13.20701 77.69464 3013 ft 33 kts 86°
2026-05-07 08:12 13.20707 77.69826 3014 ft 90 kts 90°
2026-05-07 08:12 13.20705 77.69973 3013 ft 103 kts 91°
2026-05-07 08:12 13.20698 77.70920 3013 ft 159 kts 91°
2026-05-07 08:12 13.20655 77.72152 3350 ft 180 kts 91°
2026-05-07 08:13 13.20853 77.73449 3928 ft 189 kts 64°
2026-05-07 08:13 13.21679 77.74463 4782 ft 180 kts 45°
2026-05-07 08:13 13.22505 77.75440 5331 ft 187 kts 60°
2026-05-07 08:13 13.23180 77.76656 5660 ft 206 kts 62°
2026-05-07 08:14 13.23911 77.77995 5810 ft 224 kts 62°
2026-05-07 08:14 13.24698 77.79446 5903 ft 242 kts 62°
2026-05-07 08:14 13.25545 77.81013 5925 ft 260 kts 62°
2026-05-07 08:14 13.26442 77.82679 5939 ft 270 kts 62°
2026-05-07 08:15 13.27426 77.84347 5965 ft 277 kts 58°
2026-05-07 08:15 13.28473 77.86017 6382 ft 276 kts 58°
2026-05-07 08:15 13.29505 77.87679 7239 ft 279 kts 58°
2026-05-07 08:15 13.30559 77.89380 7992 ft 284 kts 59°
2026-05-07 08:16 13.31619 77.91095 8772 ft 286 kts 58°
2026-05-07 08:16 13.32957 77.92618 9499 ft 291 kts 39°
2026-05-07 08:16 13.34589 77.93870 10261 ft 294 kts 38°
2026-05-07 08:16 13.36212 77.95133 11079 ft 294 kts 38°
2026-05-07 08:17 13.37848 77.96400 11911 ft 294 kts 37°
2026-05-07 08:17 13.39488 77.97666 12731 ft 296 kts 37°
2026-05-07 08:17 13.40584 77.98513 13214 ft 300 kts 37°
2026-05-07 08:17 13.42869 78.00278 13760 ft 320 kts 37°
2026-05-07 08:18 13.44087 78.01219 14054 ft 329 kts 37°
2026-05-07 08:18 13.45946 78.02655 14545 ft 339 kts 37°
2026-05-07 08:18 13.48477 78.04611 15326 ft 348 kts 37°
2026-05-07 08:18 13.50421 78.06114 15949 ft 352 kts 37°
2026-05-07 08:19 13.51750 78.07142 16382 ft 354 kts 36°
2026-05-07 08:19 13.53731 78.08673 16949 ft 359 kts 36°
2026-05-07 08:19 13.55711 78.10265 17462 ft 365 kts 43°
2026-05-07 08:19 13.57456 78.12185 17962 ft 371 kts 46°
2026-05-07 08:20 13.59246 78.14123 18451 ft 375 kts 46°
2026-05-07 08:20 13.61065 78.16063 18989 ft 378 kts 45°
2026-05-07 08:20 13.62902 78.18005 19537 ft 380 kts 45°
2026-05-07 08:20 13.64761 78.19961 20051 ft 383 kts 45°
2026-05-07 08:21 13.66628 78.21921 20538 ft 385 kts 45°
2026-05-07 08:21 13.68507 78.23895 21029 ft 388 kts 45°
2026-05-07 08:21 13.70402 78.25885 21493 ft 390 kts 45°
2026-05-07 08:21 13.72304 78.27883 21961 ft 392 kts 45°
2026-05-07 08:22 13.74218 78.29895 22407 ft 394 kts 45°
2026-05-07 08:22 13.76141 78.31915 22848 ft 396 kts 45°
2026-05-07 08:22 13.78075 78.33949 23263 ft 399 kts 45°
2026-05-07 08:22 13.79995 78.35968 23681 ft 401 kts 45°
2026-05-07 08:23 13.81948 78.38022 24103 ft 402 kts 45°
2026-05-07 08:23 13.83912 78.40088 24484 ft 405 kts 45°
2026-05-07 08:23 13.85889 78.42169 24863 ft 408 kts 45°
2026-05-07 08:23 13.87877 78.44262 25223 ft 411 kts 45°
2026-05-07 08:24 13.89878 78.46368 25595 ft 413 kts 45°
2026-05-07 08:24 13.91902 78.48500 25953 ft 416 kts 45°
2026-05-07 08:24 13.93930 78.50637 26306 ft 419 kts 45°
2026-05-07 08:24 13.95969 78.52785 26664 ft 421 kts 45°
2026-05-07 08:25 13.98026 78.54953 27003 ft 424 kts 45°
2026-05-07 08:25 14.00097 78.57136 27322 ft 427 kts 46°
2026-05-07 08:25 14.02176 78.59328 27658 ft 430 kts 45°
2026-05-07 08:25 14.04354 78.61445 27933 ft 432 kts 38°
2026-05-07 08:26 14.09081 78.65360 28533 ft 438 kts 38°
2026-05-07 08:26 14.11463 78.67327 28855 ft 440 kts 38°
2026-05-07 08:26 14.13855 78.69302 29140 ft 443 kts 38°
2026-05-07 08:27 14.16268 78.71296 29420 ft 445 kts 38°
2026-05-07 08:27 14.18687 78.73295 29711 ft 447 kts 38°
2026-05-07 08:27 14.20295 78.74624 29875 ft 449 kts 38°
2026-05-07 08:27 14.22172 78.76177 30083 ft 451 kts 38°
2026-05-07 08:28 14.24638 78.78215 30376 ft 452 kts 38°
2026-05-07 08:28 14.27101 78.80252 30641 ft 455 kts 38°
2026-05-07 08:28 14.29528 78.82288 30909 ft 457 kts 40°
2026-05-07 08:28 14.31978 78.84446 31168 ft 459 kts 40°
2026-05-07 08:29 14.34411 78.86581 31423 ft 461 kts 40°
2026-05-07 08:29 14.36861 78.88726 31677 ft 463 kts 40°
2026-05-07 08:29 14.39322 78.90879 31932 ft 464 kts 40°
2026-05-07 08:29 14.41792 78.93041 32177 ft 466 kts 40°
2026-05-07 08:30 14.44235 78.95180 32406 ft 468 kts 40°
2026-05-07 08:30 14.46724 78.97360 32609 ft 471 kts 40°
2026-05-07 08:30 14.49223 78.99550 32855 ft 472 kts 40°
2026-05-07 08:30 14.51735 79.01752 33070 ft 474 kts 40°
2026-05-07 08:31 14.54261 79.03966 33270 ft 477 kts 40°
2026-05-07 08:31 14.56787 79.06182 33497 ft 478 kts 40°
2026-05-07 08:31 14.59322 79.08405 33707 ft 480 kts 40°
2026-05-07 08:31 14.61872 79.10644 33921 ft 481 kts 40°
2026-05-07 08:32 14.64428 79.12887 34170 ft 482 kts 40°
2026-05-07 08:32 14.66981 79.15128 34457 ft 481 kts 40°
2026-05-07 08:32 14.69523 79.17362 34753 ft 480 kts 40°
2026-05-07 08:32 14.72067 79.19597 35051 ft 480 kts 40°
2026-05-07 08:33 14.74604 79.21826 35336 ft 479 kts 40°
2026-05-07 08:33 14.77142 79.24058 35609 ft 478 kts 40°
2026-05-07 08:33 14.79674 79.26285 35882 ft 478 kts 40°
2026-05-07 08:33 14.82201 79.28509 36150 ft 477 kts 41°
2026-05-07 08:34 14.84732 79.30736 36406 ft 477 kts 40°
2026-05-07 08:34 14.87256 79.32958 36634 ft 477 kts 40°
2026-05-07 08:34 14.89782 79.35182 36807 ft 477 kts 40°
2026-05-07 08:34 14.92294 79.37395 36827 ft 471 kts 40°
2026-05-07 08:35 14.97238 79.41760 36815 ft 465 kts 41°
2026-05-07 08:35 15.02131 79.46156 36814 ft 466 kts 41°
2026-05-07 08:36 15.07028 79.50550 36818 ft 466 kts 41°
2026-05-07 08:36 15.11925 79.54946 36809 ft 466 kts 41°
2026-05-07 08:37 15.16827 79.59350 36813 ft 466 kts 41°
2026-05-07 08:37 15.21702 79.63732 36817 ft 467 kts 41°
2026-05-07 08:38 15.26610 79.68147 36814 ft 467 kts 41°
2026-05-07 08:38 15.31512 79.72560 36815 ft 467 kts 41°
2026-05-07 08:39 15.36418 79.76979 36812 ft 467 kts 41°
2026-05-07 08:39 15.41330 79.81406 36812 ft 468 kts 41°
2026-05-07 08:40 15.46243 79.85837 36815 ft 468 kts 41°
2026-05-07 08:40 15.51158 79.90272 36812 ft 468 kts 41°
2026-05-07 08:41 15.56074 79.94712 36811 ft 468 kts 41°
2026-05-07 08:41 15.60980 79.99146 36814 ft 468 kts 41°
2026-05-07 08:42 15.65898 80.03593 36820 ft 469 kts 41°
2026-05-07 08:42 15.70824 80.08049 36813 ft 469 kts 41°
2026-05-07 08:43 15.75741 80.12502 36813 ft 469 kts 41°
2026-05-07 08:43 15.80628 80.16930 36814 ft 469 kts 41°
2026-05-07 08:44 15.85542 80.21385 36816 ft 469 kts 41°
2026-05-07 08:44 15.90454 80.25842 36813 ft 469 kts 41°
2026-05-07 08:45 15.95368 80.30302 36813 ft 469 kts 41°
2026-05-07 08:45 16.00283 80.34768 36814 ft 469 kts 41°
2026-05-07 08:46 16.05195 80.39234 36811 ft 470 kts 41°
2026-05-07 08:46 16.10121 80.43715 36801 ft 470 kts 41°
2026-05-07 08:47 16.15037 80.48190 36804 ft 470 kts 41°
2026-05-07 08:47 16.19953 80.52668 36801 ft 470 kts 41°
2026-05-07 08:48 16.24880 80.57160 36805 ft 471 kts 41°
2026-05-07 08:48 16.29802 80.61651 36802 ft 471 kts 41°
2026-05-07 08:49 16.34434 80.65879 36807 ft 472 kts 41°
2026-05-07 08:49 16.39375 80.70392 36805 ft 472 kts 41°
2026-05-07 08:50 16.44308 80.74901 36805 ft 472 kts 41°
2026-05-07 08:50 16.49249 80.79420 36806 ft 472 kts 41°
2026-05-07 08:51 16.53829 80.84285 36793 ft 471 kts 59°
2026-05-07 08:51 16.56934 80.90304 36803 ft 474 kts 63°
2026-05-07 08:52 16.59931 80.96428 36804 ft 474 kts 64°
2026-05-07 08:52 16.62863 81.02535 36804 ft 475 kts 64°
2026-05-07 08:53 16.65812 81.08699 36801 ft 475 kts 64°
2026-05-07 08:53 16.68757 81.14860 36802 ft 475 kts 64°
2026-05-07 08:54 16.71702 81.21029 36805 ft 475 kts 64°
2026-05-07 08:54 16.74646 81.27202 36806 ft 476 kts 64°
2026-05-07 08:55 16.77593 81.33386 36804 ft 476 kts 64°
2026-05-07 08:55 16.80536 81.39567 36805 ft 475 kts 64°
2026-05-07 08:56 16.83478 81.45752 36803 ft 476 kts 64°
2026-05-07 08:56 16.86419 81.51940 36804 ft 476 kts 64°
2026-05-07 08:57 16.89199 81.57796 36806 ft 477 kts 64°
2026-05-07 08:57 16.92141 81.63999 36805 ft 477 kts 64°
2026-05-07 08:58 16.95082 81.70203 36804 ft 477 kts 64°
2026-05-07 08:58 16.98020 81.76409 36800 ft 477 kts 64°
2026-05-07 08:59 17.00962 81.82630 36807 ft 478 kts 64°
2026-05-07 08:59 17.03904 81.88857 36804 ft 478 kts 64°
2026-05-07 09:00 17.06846 81.95087 36803 ft 478 kts 64°
2026-05-07 09:00 17.09790 82.01330 36808 ft 479 kts 64°
2026-05-07 09:01 17.12735 82.07578 36803 ft 479 kts 64°
2026-05-07 09:01 17.15673 82.13845 36804 ft 480 kts 64°
2026-05-07 09:02 17.18578 82.20123 36801 ft 480 kts 64°
2026-05-07 09:02 17.21485 82.26403 36806 ft 480 kts 64°
2026-05-07 09:03 17.23904 82.31633 36812 ft 480 kts 64°
2026-05-07 09:03 17.26810 82.37922 36815 ft 481 kts 64°
2026-05-07 09:04 17.30192 82.45251 36812 ft 481 kts 64°
2026-05-07 09:04 17.33097 82.51549 36831 ft 481 kts 64°
2026-05-07 09:05 17.35532 82.56835 36824 ft 481 kts 64°
2026-05-07 09:05 17.38436 82.63145 36824 ft 481 kts 64°
2026-05-07 09:06 17.41337 82.69455 36820 ft 481 kts 64°
2026-05-07 09:06 17.44236 82.75765 36828 ft 480 kts 64°
2026-05-07 09:07 17.47134 82.82082 36830 ft 481 kts 64°
2026-05-07 09:07 17.50025 82.88388 36830 ft 481 kts 64°
2026-05-07 09:08 17.52900 82.94665 36836 ft 481 kts 65°
2026-05-07 09:08 17.55786 83.00974 36834 ft 480 kts 65°
2026-05-07 09:09 17.58676 83.07296 36836 ft 481 kts 65°
2026-05-07 09:09 17.61563 83.13620 36831 ft 481 kts 65°
2026-05-07 09:10 17.64444 83.19933 36829 ft 481 kts 65°
2026-05-07 09:10 17.68065 83.25749 36819 ft 477 kts 40°
2026-05-07 09:11 17.73420 83.29860 36823 ft 479 kts 33°
2026-05-07 09:11 17.78907 83.33810 36832 ft 478 kts 32°
2026-05-07 09:12 17.84420 83.37728 36834 ft 478 kts 32°
2026-05-07 09:12 17.89924 83.41638 36836 ft 478 kts 32°
2026-05-07 09:13 17.95093 83.45314 36823 ft 478 kts 32°
2026-05-07 09:13 18.00592 83.49225 36832 ft 478 kts 32°
2026-05-07 09:14 18.06070 83.53126 36830 ft 480 kts 32°
2026-05-07 09:14 18.11597 83.57065 36832 ft 480 kts 32°
2026-05-07 09:15 18.17120 83.61004 36834 ft 480 kts 32°
2026-05-07 09:15 18.22653 83.64952 36832 ft 480 kts 32°
2026-05-07 09:16 18.28171 83.68894 36829 ft 480 kts 32°
2026-05-07 09:16 18.33696 83.72843 36831 ft 480 kts 32°
2026-05-07 09:17 18.39225 83.76798 36830 ft 480 kts 32°
2026-05-07 09:17 18.44745 83.80750 36826 ft 480 kts 32°
2026-05-07 09:18 18.50275 83.84712 36838 ft 480 kts 32°
2026-05-07 09:18 18.55816 83.88632 36846 ft 480 kts 32°
2026-05-07 09:19 18.61371 83.92557 36838 ft 480 kts 32°
2026-05-07 09:19 18.66917 83.96479 36842 ft 481 kts 32°
2026-05-07 09:20 18.72469 84.00409 36835 ft 481 kts 32°
2026-05-07 09:20 18.78031 84.04349 36840 ft 482 kts 32°
2026-05-07 09:21 18.83562 84.08271 36841 ft 482 kts 32°
2026-05-07 09:21 18.89133 84.12223 36846 ft 482 kts 31°
2026-05-07 09:22 18.94706 84.16180 36841 ft 483 kts 31°
2026-05-07 09:22 19.00299 84.20156 36829 ft 484 kts 31°
2026-05-07 09:23 19.05889 84.24132 36835 ft 485 kts 31°
2026-05-07 09:23 19.11478 84.28111 36826 ft 485 kts 31°
2026-05-07 09:24 19.17082 84.32103 36806 ft 485 kts 31°
2026-05-07 09:24 19.22694 84.36106 36816 ft 486 kts 31°
2026-05-07 09:25 19.28300 84.40106 36812 ft 486 kts 31°
2026-05-07 09:25 19.33915 84.44117 36821 ft 487 kts 31°
2026-05-07 09:26 19.39497 84.48107 36809 ft 487 kts 31°
2026-05-07 09:26 19.45112 84.52125 36818 ft 487 kts 31°
2026-05-07 09:27 19.50775 84.56181 36816 ft 495 kts 31°
2026-05-07 09:28 19.59409 84.62370 36813 ft 502 kts 31°
2026-05-07 09:28 19.65196 84.66519 36815 ft 502 kts 30°
2026-05-07 09:29 19.71105 84.70480 36818 ft 502 kts 29°
2026-05-07 09:29 19.76995 84.74444 36813 ft 501 kts 29°
2026-05-07 09:30 19.82889 84.78419 36815 ft 502 kts 29°
2026-05-07 09:30 19.88785 84.82399 36817 ft 502 kts 30°
2026-05-07 09:31 19.94682 84.86384 36805 ft 502 kts 30°
2026-05-07 09:31 20.00580 84.90373 36805 ft 502 kts 30°
2026-05-07 09:32 20.06452 84.94347 36807 ft 505 kts 29°
2026-05-07 09:32 20.12423 84.98393 36806 ft 506 kts 29°
2026-05-07 09:33 20.18328 85.02397 36802 ft 507 kts 29°
2026-05-07 09:33 20.24272 85.06432 36806 ft 507 kts 29°
2026-05-07 09:34 20.30217 85.10471 36812 ft 507 kts 29°
2026-05-07 09:34 20.36168 85.14516 36810 ft 507 kts 29°
2026-05-07 09:35 20.42122 85.18569 36818 ft 508 kts 29°
2026-05-07 09:35 20.48076 85.22626 36818 ft 508 kts 29°
2026-05-07 09:36 20.54026 85.26684 36810 ft 508 kts 29°
2026-05-07 09:36 20.59983 85.30749 36815 ft 508 kts 29°
2026-05-07 09:37 20.65938 85.34817 36813 ft 509 kts 29°
2026-05-07 09:37 20.71903 85.38896 36803 ft 509 kts 30°
2026-05-07 09:38 20.77865 85.42977 36803 ft 509 kts 29°
2026-05-07 09:38 20.83842 85.47071 36807 ft 510 kts 29°
2026-05-07 09:39 20.89842 85.51124 36801 ft 510 kts 29°
2026-05-07 09:39 20.95845 85.55181 36805 ft 511 kts 29°
2026-05-07 09:40 21.01850 85.59244 36806 ft 511 kts 29°
2026-05-07 09:40 21.07868 85.63320 36808 ft 512 kts 29°
2026-05-07 09:41 21.13889 85.67401 36799 ft 512 kts 29°
2026-05-07 09:41 21.19881 85.71468 36807 ft 513 kts 29°
2026-05-07 09:42 21.25955 85.75595 36805 ft 514 kts 29°
2026-05-07 09:42 21.31963 85.79679 36804 ft 515 kts 29°
2026-05-07 09:43 21.38050 85.83822 36805 ft 515 kts 29°
2026-05-07 09:43 21.44069 85.87924 36804 ft 516 kts 29°
2026-05-07 09:44 21.50132 85.92058 36805 ft 517 kts 29°
2026-05-07 09:44 21.56239 85.96120 36827 ft 514 kts 25°
2026-05-07 09:45 21.62500 85.99882 36843 ft 516 kts 26°
2026-05-07 09:45 21.68737 86.03687 36852 ft 516 kts 26°
2026-05-07 09:46 21.74981 86.07507 36851 ft 516 kts 26°
2026-05-07 09:46 21.81225 86.11332 36851 ft 516 kts 26°
2026-05-07 09:47 21.87466 86.15157 36857 ft 517 kts 26°
2026-05-07 09:47 21.93723 86.18998 36864 ft 517 kts 26°
2026-05-07 09:48 21.99971 86.22836 36852 ft 517 kts 26°
2026-05-07 09:48 22.05802 86.26421 36867 ft 517 kts 26°
2026-05-07 09:49 22.12056 86.30271 36859 ft 517 kts 26°
2026-05-07 09:49 22.18304 86.34120 36861 ft 517 kts 26°
2026-05-07 09:50 22.24553 86.37975 36862 ft 518 kts 26°
2026-05-07 09:50 22.29755 86.41187 36859 ft 518 kts 26°
2026-05-07 09:51 22.37064 86.45704 36874 ft 518 kts 26°
2026-05-07 09:51 22.42268 86.48924 36866 ft 518 kts 26°
2026-05-07 09:52 22.49559 86.53395 36870 ft 518 kts 25°
2026-05-07 09:52 22.54821 86.56592 36868 ft 518 kts 25°
2026-05-07 09:53 22.61102 86.60416 36863 ft 519 kts 25°
2026-05-07 09:53 22.67362 86.64231 36862 ft 519 kts 25°
2026-05-07 09:54 22.73643 86.68063 36854 ft 519 kts 25°
2026-05-07 09:54 22.79938 86.71907 36851 ft 520 kts 25°
2026-05-07 09:55 22.86242 86.75762 36852 ft 521 kts 25°
2026-05-07 09:55 22.92553 86.79625 36852 ft 521 kts 25°
2026-05-07 09:56 22.98862 86.83490 36832 ft 520 kts 25°
2026-05-07 09:56 23.05162 86.87355 36834 ft 521 kts 25°
2026-05-07 09:57 23.11485 86.91238 36838 ft 522 kts 25°
2026-05-07 09:57 23.17807 86.95124 36836 ft 522 kts 25°
2026-05-07 09:58 23.24090 86.98990 36831 ft 522 kts 25°
2026-05-07 09:58 23.30447 87.02907 36833 ft 522 kts 25°
2026-05-07 09:59 23.36772 87.06808 36833 ft 522 kts 25°
2026-05-07 09:59 23.43060 87.10691 36835 ft 523 kts 25°
2026-05-07 10:00 23.49394 87.14606 36832 ft 524 kts 25°
2026-05-07 10:00 23.55739 87.18532 36837 ft 524 kts 25°
2026-05-07 10:01 23.62064 87.22504 36825 ft 527 kts 30°
2026-05-07 10:01 23.64859 87.25118 36831 ft 533 kts 45°
2026-05-07 10:01 23.67315 87.28166 36827 ft 537 kts 47°
2026-05-07 10:02 23.71508 87.34927 36834 ft 540 kts 56°
2026-05-07 10:02 23.75545 87.41853 36835 ft 541 kts 57°
2026-05-07 10:03 23.79560 87.48799 36829 ft 541 kts 57°
2026-05-07 10:03 23.83577 87.55762 36837 ft 542 kts 57°
2026-05-07 10:04 23.87596 87.62738 36828 ft 542 kts 57°
2026-05-07 10:04 23.91614 87.69721 36830 ft 543 kts 57°
2026-05-07 10:05 23.95624 87.76701 36830 ft 543 kts 57°
2026-05-07 10:05 23.99641 87.83701 36833 ft 544 kts 57°
2026-05-07 10:06 24.03629 87.90663 36833 ft 544 kts 57°
2026-05-07 10:06 24.07643 87.97679 36833 ft 544 kts 57°
2026-05-07 10:07 24.11656 88.04702 36829 ft 544 kts 57°
2026-05-07 10:07 24.15660 88.11721 36836 ft 544 kts 57°
2026-05-07 10:08 24.19663 88.18746 36833 ft 544 kts 57°
2026-05-07 10:08 24.23662 88.25776 36834 ft 544 kts 57°
2026-05-07 10:09 24.27646 88.32790 36836 ft 536 kts 57°
2026-05-07 10:09 24.31540 88.39652 36831 ft 528 kts 57°
2026-05-07 10:10 24.35418 88.46499 36829 ft 528 kts 57°
2026-05-07 10:10 24.39284 88.53345 36830 ft 528 kts 57°
2026-05-07 10:11 24.43155 88.60200 36838 ft 528 kts 56°
2026-05-07 10:11 24.47196 88.66927 36832 ft 529 kts 55°
2026-05-07 10:12 24.51234 88.73683 36829 ft 529 kts 55°
2026-05-07 10:12 24.55266 88.80441 36833 ft 529 kts 55°
2026-05-07 10:13 24.59266 88.87157 36835 ft 529 kts 55°
2026-05-07 10:13 24.63319 88.93972 36835 ft 529 kts 55°
2026-05-07 10:14 24.67314 89.00697 36835 ft 529 kts 56°
2026-05-07 10:14 24.71332 89.07471 36847 ft 529 kts 56°
2026-05-07 10:15 24.75290 89.14153 36383 ft 514 kts 55°
2026-05-07 10:15 24.77239 89.17447 35769 ft 514 kts 56°
2026-05-07 10:15 24.79187 89.20743 35186 ft 513 kts 56°
2026-05-07 10:15 24.81127 89.24027 34706 ft 510 kts 56°
2026-05-07 10:16 24.83057 89.27296 34248 ft 507 kts 56°
2026-05-07 10:16 24.84974 89.30543 33736 ft 505 kts 56°
2026-05-07 10:16 24.86879 89.33773 33232 ft 503 kts 56°
2026-05-07 10:16 24.88777 89.37010 32669 ft 502 kts 56°
2026-05-07 10:17 24.90672 89.40238 32185 ft 499 kts 56°
2026-05-07 10:17 24.92546 89.43436 31749 ft 496 kts 56°
2026-05-07 10:17 24.94412 89.46619 31272 ft 493 kts 57°
2026-05-07 10:17 24.96268 89.49789 30806 ft 490 kts 57°
2026-05-07 10:18 24.98110 89.52937 30326 ft 488 kts 57°
2026-05-07 10:18 24.99920 89.56033 29867 ft 485 kts 57°
2026-05-07 10:18 25.01761 89.59181 29404 ft 481 kts 57°
2026-05-07 10:18 25.03559 89.62260 28974 ft 472 kts 57°
2026-05-07 10:19 25.05324 89.65282 28524 ft 463 kts 57°
2026-05-07 10:19 25.07053 89.68248 28094 ft 459 kts 57°
2026-05-07 10:19 25.08750 89.71157 27674 ft 455 kts 57°
2026-05-07 10:19 25.10476 89.74121 27267 ft 451 kts 57°
2026-05-07 10:20 25.12144 89.76988 26941 ft 446 kts 57°
2026-05-07 10:20 25.13812 89.79853 26578 ft 442 kts 57°
2026-05-07 10:20 25.15465 89.82696 26213 ft 438 kts 57°
2026-05-07 10:20 25.17101 89.85510 25848 ft 434 kts 57°
2026-05-07 10:21 25.18730 89.88315 25481 ft 431 kts 57°
2026-05-07 10:21 25.20339 89.91087 25116 ft 427 kts 57°
2026-05-07 10:21 25.21935 89.93837 24710 ft 425 kts 57°
2026-05-07 10:21 25.23528 89.96584 24292 ft 423 kts 57°
2026-05-07 10:22 25.25105 89.99305 23885 ft 420 kts 57°
2026-05-07 10:22 25.26673 90.02031 23471 ft 418 kts 58°
2026-05-07 10:22 25.28201 90.04759 23058 ft 416 kts 58°
2026-05-07 10:22 25.29724 90.07472 22646 ft 415 kts 58°
2026-05-07 10:23 25.31242 90.10173 22233 ft 413 kts 58°
2026-05-07 10:23 25.32753 90.12864 21819 ft 411 kts 58°
2026-05-07 10:23 25.34253 90.15537 21410 ft 409 kts 58°
2026-05-07 10:23 25.35752 90.18210 20996 ft 408 kts 58°
2026-05-07 10:24 25.37240 90.20863 20595 ft 406 kts 58°
2026-05-07 10:24 25.38718 90.23501 20340 ft 399 kts 58°
2026-05-07 10:24 25.40161 90.26078 20195 ft 390 kts 58°
2026-05-07 10:24 25.41573 90.28600 19992 ft 382 kts 58°
2026-05-07 10:25 25.42967 90.31093 19621 ft 381 kts 58°
2026-05-07 10:25 25.44339 90.33546 19291 ft 378 kts 57°
2026-05-07 10:25 25.45737 90.36047 18912 ft 376 kts 57°
2026-05-07 10:25 25.47088 90.38468 18572 ft 373 kts 57°
2026-05-07 10:26 25.48449 90.40906 18169 ft 371 kts 57°
2026-05-07 10:26 25.49802 90.43328 17871 ft 368 kts 57°
2026-05-07 10:26 25.51144 90.45735 17504 ft 366 kts 57°
2026-05-07 10:26 25.52478 90.48132 17194 ft 364 kts 58°
2026-05-07 10:27 25.53780 90.50564 16871 ft 361 kts 59°
2026-05-07 10:27 25.55037 90.52925 16582 ft 359 kts 59°
2026-05-07 10:27 25.56300 90.55292 16312 ft 356 kts 59°
2026-05-07 10:27 25.57560 90.57652 15975 ft 355 kts 59°
2026-05-07 10:28 25.58809 90.59992 15720 ft 352 kts 59°
2026-05-07 10:28 25.60051 90.62320 15407 ft 350 kts 59°
2026-05-07 10:28 25.61285 90.64637 15107 ft 348 kts 59°
2026-05-07 10:28 25.62510 90.66936 14813 ft 345 kts 59°
2026-05-07 10:29 25.63728 90.69223 14518 ft 344 kts 59°
2026-05-07 10:29 25.64936 90.71492 14257 ft 341 kts 59°
2026-05-07 10:29 25.66142 90.73760 13967 ft 339 kts 59°
2026-05-07 10:30 25.68520 90.78231 13419 ft 335 kts 60°
2026-05-07 10:30 25.69698 90.80448 13141 ft 333 kts 60°
2026-05-07 10:30 25.70869 90.82655 12888 ft 330 kts 60°
2026-05-07 10:30 25.72025 90.84833 12475 ft 328 kts 60°
2026-05-07 10:31 25.73175 90.87003 12083 ft 324 kts 60°
2026-05-07 10:31 25.74317 90.89154 11654 ft 322 kts 60°
2026-05-07 10:31 25.75447 90.91286 11260 ft 319 kts 60°
2026-05-07 10:31 25.76563 90.93391 10857 ft 316 kts 60°
2026-05-07 10:32 25.77671 90.95484 10490 ft 312 kts 60°
2026-05-07 10:32 25.78755 90.97533 10263 ft 303 kts 60°
2026-05-07 10:32 25.79803 90.99514 10085 ft 293 kts 60°
2026-05-07 10:32 25.80808 91.01413 9927 ft 284 kts 60°
2026-05-07 10:33 25.81803 91.03295 9769 ft 274 kts 60°
2026-05-07 10:33 25.82740 91.05066 9573 ft 267 kts 60°
2026-05-07 10:33 25.83677 91.06842 9234 ft 266 kts 60°
2026-05-07 10:33 25.84610 91.08609 8931 ft 264 kts 60°
2026-05-07 10:34 25.85533 91.10358 8631 ft 262 kts 60°
2026-05-07 10:34 25.86452 91.12099 8296 ft 260 kts 60°
2026-05-07 10:34 25.87364 91.13829 8062 ft 259 kts 60°
2026-05-07 10:34 25.88270 91.15547 7853 ft 258 kts 60°
2026-05-07 10:35 25.89174 91.17267 7633 ft 257 kts 62°
2026-05-07 10:35 25.89685 91.19137 7441 ft 252 kts 88°
2026-05-07 10:35 25.89707 91.21084 7184 ft 253 kts 90°
2026-05-07 10:35 25.89719 91.23038 6997 ft 251 kts 91°
2026-05-07 10:36 25.89729 91.24970 6814 ft 249 kts 91°
2026-05-07 10:36 25.89742 91.26864 6694 ft 240 kts 91°
2026-05-07 10:36 25.89823 91.28691 6523 ft 234 kts 86°
2026-05-07 10:36 25.89966 91.30465 6354 ft 226 kts 85°
2026-05-07 10:37 25.90104 91.32169 6243 ft 216 kts 87°
2026-05-07 10:37 25.90009 91.33787 6092 ft 207 kts 103°
2026-05-07 10:37 25.89622 91.35324 5795 ft 206 kts 109°
2026-05-07 10:37 25.89465 91.36892 5491 ft 206 kts 82°
2026-05-07 10:38 25.89757 91.38448 5364 ft 206 kts 77°
2026-05-07 10:38 25.90091 91.39991 5457 ft 207 kts 77°
2026-05-07 10:38 25.90436 91.41566 5491 ft 212 kts 77°
2026-05-07 10:38 25.90668 91.42617 5524 ft 212 kts 76°
2026-05-07 10:39 25.91129 91.44706 5363 ft 209 kts 77°
2026-05-07 10:39 25.91477 91.46279 5090 ft 211 kts 77°
2026-05-07 10:39 25.91826 91.47885 4699 ft 217 kts 77°
2026-05-07 10:39 25.92426 91.49434 4245 ft 223 kts 51°
2026-05-07 10:40 25.93595 91.50572 3793 ft 226 kts 28°
2026-05-07 10:40 25.95017 91.51283 3482 ft 220 kts 20°
2026-05-07 10:40 25.95939 91.51692 3282 ft 211 kts 19°
2026-05-07 10:40 25.97239 91.52288 2975 ft 194 kts 20°
2026-05-07 10:41 25.98422 91.52836 2702 ft 177 kts 20°
2026-05-07 10:41 25.99513 91.53340 2494 ft 162 kts 20°
2026-05-07 10:41 26.00535 91.53818 2249 ft 156 kts 20°
2026-05-07 10:41 26.01528 91.54279 2010 ft 154 kts 21°
2026-05-07 10:42 26.02520 91.54741 1787 ft 154 kts 21°
2026-05-07 10:42 26.03512 91.55201 1563 ft 154 kts 21°
2026-05-07 10:42 26.03704 91.55291 1518 ft 154 kts 21°
2026-05-07 10:42 26.04250 91.55545 1394 ft 154 kts 21°
2026-05-07 10:43 26.05238 91.56009 1175 ft 154 kts 22°
2026-05-07 10:43 26.06230 91.56470 943 ft 154 kts 22°
2026-05-07 10:43 26.06357 91.56527 917 ft 153 kts 21°
2026-05-07 11:17 26.06811 91.56731 826 ft 153 kts 21°
2026-05-07 11:17 26.07792 91.57193 588 ft 152 kts 22°
2026-05-07 11:17 26.08768 91.57657 383 ft 152 kts 21°
2026-05-07 11:18 26.09743 91.58098 183 ft 148 kts 22°
2026-05-07 11:18 26.10517 91.58452 174 ft 84 kts 22°
2026-05-07 11:18 26.10875 91.58619 176 ft 43 kts 24°
2026-05-07 11:18 26.11152 91.58744 175 ft 36 kts
2026-05-07 11:19 26.11353 91.58823 173 ft 31 kts 39°
2026-05-07 11:19 26.11542 91.58923 172 ft 20 kts 24°
2026-05-07 11:19 26.11560 91.58932 172 ft 2 kts 26°